1504983600.11,32264,15.19,73308.3,3.21,-2.63,-2.03,0,*7A
1504983601.35,32265,15.25,73308.3,3.21,-1.91,-1.13,0,*77
1504983602.56,32266,15.19,73304.3,3.25,-1.83,-0.73,0,*44
1504983603.74,32267,15.19,73300.0,3.21,-2.23,-0.53,0,*4A
1504983604.94,32268,15.19,73304.0,3.21,-2.43,-0.27,0,*40
1504983606.15,32269,15.19,73306.3,3.25,-1.71,0.83,0,*64
1504983607.34,32270,15.25,73304.8,3.25,-0.33,1.67,0,*60
1504983608.53,32271,15.19,73308.3,3.25,0.63,1.83,0,*43
1504983609.75,32272,15.19,73312.5,3.25,1.43,2.21,0,*78
1504983610.98,32273,15.19,73320.0,3.25,1.97,2.51,0,*77
1504983612.2,32274,15.19,73330.5,3.27,2.27,2.55,0,*7E
1504983613.43,32275,15.25,73334.0,3.29,2.69,2.81,0,*72
1504983614.68,32276,15.19,73328.5,3.27,2.69,2.73,0,*72
1504983615.93,32277,15.19,73332.0,3.27,2.81,2.81,0,*78
1504983617.15,32278,15.19,73336.8,3.27,2.89,2.91,0,*7E
1504983618.38,32279,15.25,73344.0,3.27,2.89,2.91,0,*7F
1504983619.58,32280,15.25,73354.3,3.29,2.91,3.03,0,*74
1504983620.76,32281,15.19,73342.8,3.29,2.95,2.95,0,*7F
1504983622.01,32282,15.25,73344.3,3.31,2.81,2.85,0,*71
1504983623.24,32283,15.19,73336.3,3.31,2.95,3.03,0,*7A
1504983624.43,32284,15.19,73340.8,3.31,2.95,2.95,0,*73
1504983625.69,32285,15.25,73352.0,3.31,3.03,3.07,0,*76
1504983626.92,32286,15.19,73342.3,3.33,2.99,3.19,0,*7A
1504983628.15,32287,15.19,73338.8,3.33,2.99,3.11,0,*73
1504983629.38,32288,15.25,73340.0,3.33,2.95,3.07,0,*77
1504983630.63,32289,15.19,73340.3,3.33,2.73,2.85,0,*75
1504983631.83,32290,15.19,73346.3,3.35,2.61,2.69,0,*7A
1504983633.07,32291,15.19,73344.8,3.33,2.65,2.73,0,*72
1504983634.32,32292,15.19,73342.5,3.33,2.73,2.73,0,*76
1504983635.54,32293,15.19,73344.0,3.33,2.65,2.65,0,*77
1504983636.75,32294,15.19,73340.8,3.35,2.69,2.65,0,*7A
1504983637.96,32295,15.25,73344.0,3.35,2.55,2.61,0,*70
1504983639.17,32296,15.19,73338.0,3.35,2.43,2.61,0,*74
1504983640.41,32297,15.19,73336.8,3.35,2.39,2.51,0,*7B
1504983641.61,32298,15.19,73326.0,3.35,2.39,2.31,0,*72
1504983642.83,32299,15.25,73322.5,3.35,2.21,2.21,0,*7B
1504983644.04,32300,15.19,73324.8,3.35,2.31,2.21,0,*7B
1504983645.27,32301,15.19,73324.5,3.35,2.39,2.21,0,*72
1504983646.45,32302,15.25,73330.0,3.35,2.31,2.27,0,*7F
1504983647.68,32303,15.25,73332.3,3.35,2.39,2.51,0,*77
1504983648.89,32304,15.19,73322.0,3.35,2.61,2.55,0,*79
1504983650.13,32305,15.25,73322.5,3.35,2.43,2.51,0,*7C
1504983651.36,32306,15.19,73322.8,3.35,2.43,2.55,0,*7B
1504983652.59,32307,15.19,73314.5,3.35,2.51,2.55,0,*79
1504983653.85,32308,15.19,73318.0,3.37,2.43,2.51,0,*73
1504983655.09,32309,15.19,73312.8,3.35,2.51,2.51,0,*73
1504983656.32,32310,15.19,73312.3,3.37,2.55,2.61,0,*7E
1504983657.51,32311,15.19,73304.0,3.35,2.61,2.61,0,*7A
1504983658.7,32312,15.19,73308.5,3.35,2.65,2.65,0,*79
1504983659.91,32313,15.25,73316.0,3.37,2.65,2.65,0,*7A
1504983661.12,32314,15.25,73316.0,3.37,2.61,2.65,0,*79
1504983662.35,32315,15.25,73316.0,3.37,2.61,2.69,0,*74
1504983663.6,32316,15.19,73310.8,3.37,2.69,2.77,0,*70
1504983664.86,32317,15.25,73310.5,3.37,2.81,2.89,0,*76
1504983666.08,32318,15.19,73310.8,3.39,2.85,2.85,0,*7F
1504983667.26,32319,15.19,73312.3,3.39,2.91,2.91,0,*7E
1504983668.44,32320,15.25,73316.0,3.39,2.95,2.95,0,*74
1504983669.64,32321,15.25,73318.8,3.39,2.95,3.03,0,*7B
1504983670.91,32322,15.19,73312.5,3.41,3.15,3.15,0,*79
1504983672.17,32323,15.19,73312.3,3.41,3.15,3.15,0,*78
1504983673.4,32324,15.19,73312.0,3.39,3.15,3.19,0,*7C
1504983674.64,32325,15.19,73312.8,3.41,3.15,3.25,0,*7D
1504983675.91,32326,15.19,73318.8,3.41,3.15,3.15,0,*7D
1504983677.17,32327,15.19,73320.5,3.41,3.15,3.19,0,*70
1504983678.42,32328,15.19,73320.3,3.41,3.19,3.19,0,*73
1504983679.63,32329,15.19,73322.0,3.41,3.25,3.25,0,*72
1504983680.86,32330,15.19,73328.5,3.45,3.29,3.23,0,*74
1504983682.04,32331,15.19,73338.5,3.43,3.29,3.29,0,*79
1504983683.29,32332,15.19,73340.3,3.45,3.19,3.11,0,*74
1504983684.49,32333,15.25,73340.8,3.45,2.99,2.95,0,*71
1504983685.74,32334,15.25,73342.8,3.45,2.77,2.77,0,*7A
1504983686.98,32335,15.19,73338.0,3.45,2.61,2.73,0,*78
1504983688.21,32336,15.19,73334.0,3.45,2.61,2.77,0,*7F
1504983689.46,32337,15.19,73326.0,3.45,2.69,2.89,0,*77
1504983690.69,32338,15.19,73324.5,3.49,2.77,2.99,0,*7A
1504983691.92,32339,15.19,73330.3,3.49,2.77,2.99,0,*7B
1504983693.15,32340,15.19,73328.5,3.49,2.81,2.95,0,*70
1504983694.39,32341,15.19,73324.3,3.49,2.81,2.91,0,*75
1504983695.62,32342,15.19,73326.5,3.49,2.99,3.03,0,*75
1504983696.88,32343,15.19,73326.3,3.49,3.03,3.11,0,*75
1504983698.14,32344,15.19,73324.3,3.49,3.15,3.11,0,*75
1504983699.41,32345,15.19,73320.5,3.49,3.11,3.11,0,*70
1504983700.64,32346,15.19,73314.0,3.51,3.07,3.07,0,*7A
1504983701.88,32347,15.25,73318.0,3.51,3.07,3.03,0,*7F
1504983703.14,32348,15.19,73310.8,3.49,3.03,3.03,0,*7D
1504983704.38,32349,15.25,73310.5,3.51,3.03,3.03,0,*75
1504983705.59,32350,15.19,73310.8,3.49,2.91,2.99,0,*7C
1504983706.77,32351,15.19,73308.3,3.51,2.95,2.95,0,*7C
1504983707.95,32352,15.19,73314.3,3.51,2.91,2.91,0,*7F
1504983709.16,32353,15.25,73322.0,3.53,2.95,2.95,0,*7C
1504983710.39,32354,15.19,73322.0,3.53,2.95,3.03,0,*75
1504983711.62,32355,15.19,73320.8,3.53,3.03,2.91,0,*70
1504983712.89,32356,15.19,73320.8,3.53,3.15,3.03,0,*7E
1504983714.12,32357,15.19,73316.3,3.53,3.25,3.19,0,*77
1504983715.35,32358,15.19,73320.0,3.53,3.37,3.29,0,*78
1504983716.59,32359,15.19,73324.8,3.55,3.45,3.41,0,*74
1504983717.82,32360,15.19,73338.5,3.55,3.45,3.41,0,*7E
1504983719.03,32361,15.19,73338.0,3.55,3.25,3.19,0,*74
1504983720.23,32362,15.19,73340.5,3.55,3.29,3.23,0,*72
1504983721.43,32363,15.19,73342.3,3.55,3.29,3.19,0,*7A
1504983722.68,32364,15.19,73338.8,3.53,3.19,3.19,0,*78
1504983723.92,32365,15.19,73340.0,3.55,3.07,3.11,0,*78
1504983725.17,32366,15.19,73344.8,3.57,2.85,2.85,0,*7E
1504983726.42,32367,15.25,73348.0,3.57,2.81,2.85,0,*7B
1504983727.65,32368,15.19,73348.0,3.57,2.61,2.85,0,*7A
1504983728.86,32369,15.25,73352.8,3.59,2.21,2.61,0,*7B
1504983730.09,32370,15.19,73348.3,3.59,1.21,1.71,0,*72
1504983731.32,32371,15.19,73350.5,3.57,-0.33,0.59,0,*59
1504983732.52,32372,15.19,73346.3,3.59,-0.73,0.21,0,*5F
1504983733.72,32373,15.19,73350.5,3.59,-0.11,0.33,0,*59
1504983734.93,32374,15.19,73350.8,3.59,0.59,0.95,0,*73
1504983736.14,32375,15.19,73350.0,3.59,0.51,0.71,0,*70
1504983737.35,32376,15.19,73332.8,3.59,0.51,0.95,0,*79
1504983738.58,32377,15.19,73330.0,3.59,0.95,1.33,0,*4D
1504983739.81,32378,15.19,73326.3,3.59,1.17,1.67,0,*78
1504983741.04,32379,15.19,73316.3,3.59,1.37,2.01,0,*78
1504983742.31,32380,15.19,73314.5,3.57,1.55,2.13,0,*77
1504983743.5,32381,15.19,73308.3,3.59,1.83,2.21,0,*72
1504983744.7,32382,15.19,73300.5,3.59,1.93,2.31,0,*71
1504983745.94,32383,15.19,73296.8,3.59,2.17,2.51,0,*79
1504983747.17,32384,15.19,73300.0,3.59,2.51,2.73,0,*7C
1504983748.39,32385,15.19,73296.3,3.59,2.73,2.85,0,*74
1504983749.62,32386,15.19,73300.5,3.59,2.77,2.89,0,*7F
1504983750.85,32387,15.25,73302.5,3.59,2.77,2.77,0,*7F
1504983752.07,32388,15.19,73294.3,3.59,2.73,2.85,0,*79
1504983753.29,32389,15.19,73298.0,3.61,2.77,2.91,0,*72
1504983754.49,32390,15.19,73312.5,3.63,2.77,2.91,0,*78
1504983755.74,32391,15.19,73312.3,3.61,2.59,2.89,0,*7E
1504983757.0,32392,15.19,73316.0,3.61,2.25,2.81,0,*7E
1504983758.25,32393,15.19,73322.8,3.61,2.05,2.69,0,*7B
1504983759.5,32394,15.19,73318.0,3.61,1.71,2.59,0,*7F
1504983760.73,32395,15.19,73310.8,3.63,1.63,2.47,0,*70
1504983761.95,32396,15.19,73302.5,3.61,1.51,2.35,0,*75
1504983763.2,32397,15.19,73304.5,3.61,1.59,2.55,0,*7A
1504983764.45,32398,15.19,73302.3,3.61,1.85,2.55,0,*74
1504983765.65,32399,15.19,73302.5,3.63,2.21,2.65,0,*79
1504983766.9,32400,15.19,73314.5,3.61,2.55,2.81,0,*75
1504983768.16,32401,15.19,73314.3,3.61,2.77,2.89,0,*7C
1504983769.38,32402,15.19,73320.5,3.61,2.89,2.95,0,*73
1504983770.58,32403,15.19,73324.8,3.63,2.89,2.95,0,*70
1504983771.83,32404,15.25,73328.8,3.61,2.81,3.03,0,*73
1504983773.05,32405,15.19,73324.8,3.61,2.77,2.91,0,*71
1504983774.3,32406,15.19,73318.3,3.61,2.43,2.69,0,*72
1504983775.53,32407,15.19,73322.0,3.63,2.13,2.59,0,*77
1504983776.73,32408,15.19,73328.8,3.63,1.93,2.35,0,*79
1504983777.97,32409,15.19,73324.5,3.61,1.21,1.83,0,*7D
1504983779.15,32410,15.19,73328.5,3.63,0.29,1.41,0,*40
1504983780.37,32411,15.19,73326.5,3.63,0.63,1.25,0,*4D
1504983781.58,32412,15.19,73316.0,3.63,0.63,0.79,0,*76
1504983782.76,32413,15.19,73320.8,3.63,-0.11,-0.33,0,*7C
1504983784.02,32414,15.25,73326.0,3.61,-1.13,-1.01,0,*7A
1504983785.26,32415,15.19,73336.5,3.63,-1.47,-1.43,0,*7E
1504983786.5,32416,15.19,73338.8,3.63,-0.93,-1.43,0,*45
1504983787.69,32417,15.19,73332.3,3.63,-1.25,-1.79,0,*71
1504983788.91,32418,15.19,73326.3,3.63,-1.99,-2.99,0,*74
1504983790.09,32419,15.19,73312.8,3.63,-4.41,-5.39,0,*78
1504983791.3,32420,15.19,73304.0,3.63,-9.53,-5.97,0,*78
1504983792.51,32421,15.19,73290.0,3.63,-5.69,-3.23,0,*75
1504983793.75,32422,15.19,73268.3,3.63,-2.75,-1.43,0,*78
1504983794.93,32423,15.19,73298.5,3.63,-0.07,-0.11,0,*48
1504983796.15,32424,15.19,73300.5,3.61,0.41,-2.23,0,*61
1504983797.4,32425,15.19,73308.0,3.61,-2.95,-7.77,0,*72
1504983798.59,32426,15.19,73300.8,3.63,-1.55,-2.23,0,*78
1504983799.78,32427,15.19,73310.5,3.61,0.05,-0.61,0,*66
1504983800.98,32428,15.19,73298.3,3.63,0.47,-0.73,0,*5E
1504983802.21,32429,15.19,73294.5,3.63,1.33,0.13,0,*46
1504983803.45,32430,15.19,73290.5,3.61,2.05,1.51,0,*7D
1504983804.68,32431,15.19,73296.3,3.63,2.21,2.09,0,*76
1504983805.9,32432,15.19,73286.8,3.63,2.43,2.25,0,*7F
1504983807.13,32433,15.19,73300.8,3.63,2.43,2.25,0,*7E
1504983808.36,32434,15.19,73308.3,3.61,2.31,2.09,0,*70
1504983809.53,32435,15.19,73302.3,3.63,2.35,2.31,0,*7C
1504983810.76,32436,15.19,73306.8,3.63,2.43,2.47,0,*7F
1504983811.96,32437,15.19,73304.3,3.63,2.35,2.55,0,*7C
1504983813.19,32438,15.19,73312.8,3.63,2.59,2.77,0,*79
1504983814.39,32439,15.19,73328.0,3.63,2.55,2.65,0,*77
1504983815.62,32440,15.19,73326.3,3.63,2.25,2.13,0,*7F
1504983816.79,32441,15.19,73322.3,3.63,1.83,1.83,0,*7B
1504983818.02,32442,15.19,73330.3,3.63,0.55,0.47,0,*7B
1504983819.21,32443,15.19,73324.5,3.65,-1.75,-1.63,0,*78
1504983820.42,32444,15.19,73314.0,3.65,-4.73,-3.95,0,*77
1504983821.69,32445,15.19,73314.8,3.67,-7.05,-7.99,0,*7E
1504983822.89,32446,15.19,73310.3,3.65,-10.15,-11.19,0,*77
1504983824.09,32447,15.19,73306.5,3.65,-13.69,-14.11,0,*73
1504983825.32,32448,15.19,73306.5,3.63,-13.87,-12.03,0,*7F
1504983826.6,32449,15.19,73296.3,3.61,-12.57,-12.07,0,*74
1504983827.84,32450,15.19,73300.3,3.63,-11.73,-11.33,0,*7F
1504983829.06,32451,15.19,73298.8,3.63,-11.73,-10.05,0,*7A
1504983830.28,32452,15.19,73300.0,3.63,-11.45,-9.15,0,*45
1504983831.52,32453,15.19,73296.3,3.61,-10.41,-9.23,0,*46
1504983832.79,32454,15.19,73298.5,3.61,-11.89,-9.15,0,*41
1504983833.99,32455,15.19,73292.5,3.61,-7.49,-5.97,0,*7D
1504983835.23,32456,15.19,73294.8,3.61,-4.09,-2.75,0,*72
1504983836.47,32457,15.19,73294.3,3.61,-2.99,-1.35,0,*7B
1504983837.71,32458,15.19,73292.8,3.61,-3.63,-1.59,0,*7A
1504983838.97,32459,15.19,73290.8,3.61,-3.71,-1.95,0,*78
1504983840.18,32460,15.19,73300.3,3.61,-2.95,-1.33,0,*75
1504983841.4,32461,15.19,73302.0,3.61,-2.23,-1.21,0,*7A
1504983842.61,32462,15.19,73298.8,3.61,-3.35,-2.87,0,*70
1504983843.86,32463,15.19,73304.8,3.61,-2.47,-2.31,0,*78
1504983845.07,32464,15.19,73314.3,3.61,-4.41,-4.49,0,*76
1504983846.31,32465,15.19,73314.5,3.61,-7.27,-6.43,0,*7C
1504983847.57,32466,15.19,73310.5,3.61,-8.03,-7.61,0,*77
1504983848.8,32467,15.19,73304.0,3.61,-7.53,-7.65,0,*78
1504983850.02,32468,15.19,73312.8,3.59,-6.23,-6.09,0,*71
1504983851.23,32469,15.19,73314.8,3.61,-8.89,-8.71,0,*74
1504983852.48,32470,15.19,73300.3,3.61,-10.63,-12.29,0,*77
1504983853.73,32471,15.19,73296.0,3.61,-11.01,-12.15,0,*7C
1504983854.98,32472,15.19,73306.8,3.61,-8.85,-9.15,0,*71
1504983856.22,32473,15.19,73316.5,3.61,-8.21,-7.65,0,*77
1504983857.48,32474,15.19,73316.0,3.61,-5.89,-5.15,0,*7A
1504983858.7,32475,15.19,73314.3,3.59,-8.37,-7.01,0,*7F
1504983859.96,32476,15.19,73316.8,3.59,-12.53,-10.67,0,*73
1504983861.18,32477,15.19,73302.0,3.59,-18.99,-16.27,0,*7C
1504983862.44,32478,15.19,73290.3,3.61,-9.53,-5.77,0,*79
1504983863.67,32479,15.19,73298.0,3.59,-5.19,-3.63,0,*72
1504983864.92,32480,15.19,73304.5,3.61,-5.03,-4.65,0,*75
1504983866.15,32481,15.19,73312.0,3.61,-4.49,-4.89,0,*79
1504983867.39,32482,15.19,73320.8,3.61,-5.31,-7.15,0,*72
1504983868.64,32483,15.19,73324.3,3.61,-9.27,-10.63,0,*4F
1504983869.89,32484,15.19,73322.3,3.61,-11.59,-10.05,0,*78
1504983871.08,32485,15.19,73326.5,3.63,-9.71,-8.41,0,*71
1504983872.28,32486,15.19,73330.8,3.59,-11.15,-11.15,0,*79
1504983873.48,32487,15.19,73326.0,3.59,-17.31,-16.55,0,*7B
1504983874.71,32488,15.19,73326.3,3.59,-17.03,-16.59,0,*79
1504983875.94,32489,15.19,73326.3,3.59,-16.27,-15.11,0,*70
1504983877.17,32490,15.19,73316.3,3.57,-14.15,-13.65,0,*70
1504983878.41,32491,15.19,73318.3,3.57,-13.69,-12.29,0,*74
1504983879.65,32492,15.19,73308.8,3.57,-14.69,-13.29,0,*71
1504983880.88,32493,15.19,73314.8,3.59,-9.57,-9.49,0,*72
1504983882.1,32494,15.19,73310.8,3.59,-9.37,-9.71,0,*78
1504983883.34,32495,15.19,73306.3,3.57,-8.51,-8.67,0,*70
1504983884.6,32496,15.19,73302.3,3.57,-4.85,-4.85,0,*76
1504983885.82,32497,15.19,73304.0,3.57,-3.07,-3.91,0,*78
1504983887.04,32498,15.19,73310.8,3.59,-3.27,-5.69,0,*7A
1504983888.29,32499,15.19,73308.3,3.57,-6.59,-7.99,0,*74
1504983889.5,32500,15.19,73312.3,3.57,-7.19,-6.69,0,*7E
1504983890.75,32501,15.25,73314.0,3.57,-3.43,-3.83,0,*75
1504983891.97,32502,15.19,73310.8,3.57,-4.09,-4.57,0,*71
1504983893.19,32503,15.19,73308.5,3.59,-5.47,-5.03,0,*75
1504983894.47,32504,15.19,73308.3,3.57,-5.85,-5.27,0,*74
1504983895.68,32505,15.19,73312.0,3.59,-4.93,-4.53,0,*7F
1504983896.88,32506,15.19,73314.0,3.59,-3.23,-3.63,0,*74
1504983898.11,32507,15.19,73312.0,3.59,-2.75,-3.63,0,*77
1504983899.33,32508,15.25,73318.3,3.59,-3.55,-6.09,0,*72
1504983900.53,32509,15.19,73322.0,3.59,-4.53,-7.95,0,*76
1504983901.72,32510,15.19,73324.5,3.59,-6.89,-8.89,0,*79
1504983902.91,32511,15.19,73328.0,3.59,-8.21,-9.89,0,*75
1504983904.14,32512,15.19,73328.8,3.57,-10.01,-10.15,0,*7E
1504983905.35,32513,15.19,73318.8,3.59,-11.45,-12.25,0,*71
1504983906.6,32514,15.19,73320.8,3.61,-15.63,-14.79,0,*72
1504983907.83,32515,15.25,73320.3,3.57,-16.55,-15.67,0,*7E
1504983909.08,32516,15.19,73316.3,3.57,-15.89,-14.37,0,*7B
1504983910.34,32517,15.19,73318.5,3.57,-14.55,-13.15,0,*7D
1504983911.59,32518,15.19,73316.8,3.59,-12.11,-11.37,0,*78
1504983912.85,32519,15.19,73318.3,3.57,-11.29,-10.27,0,*7F
1504983914.07,32520,15.19,73320.8,3.55,-10.57,-9.61,0,*45
1504983915.34,32521,15.19,73322.5,3.53,-10.35,-10.41,0,*7C
1504983916.55,32522,15.19,73330.8,3.55,-10.85,-10.35,0,*71
1504983917.78,32523,15.19,73322.8,3.55,-11.67,-10.97,0,*75
1504983919.01,32524,15.19,73324.8,3.55,-11.59,-11.15,0,*74
1504983920.25,32525,15.19,73330.0,3.53,-11.01,-12.43,0,*7E
1504983921.45,32526,15.19,73328.5,3.55,-12.93,-14.29,0,*79
1504983922.71,32527,15.19,73326.3,3.53,-13.83,-14.61,0,*72
1504983923.94,32528,15.19,73322.5,3.53,-14.61,-14.69,0,*7E
1504983925.22,32529,15.19,73318.3,3.53,-15.43,-15.21,0,*73
1504983926.47,32530,15.25,73326.5,3.53,-16.93,-17.11,0,*74
1504983927.7,32531,15.19,73314.3,3.51,-18.79,-17.97,0,*73
1504983928.93,32532,15.19,73314.8,3.49,-19.51,-18.65,0,*70
1504983930.13,32533,15.19,73324.8,3.51,-19.99,-19.07,0,*79
1504983931.39,32534,15.19,73332.0,3.49,-20.69,-19.57,0,*77
1504983932.65,32535,15.19,73324.5,3.45,-20.89,-19.81,0,*7F
1504983933.87,32536,15.19,73310.0,3.43,-20.19,-19.13,0,*78
1504983935.06,32537,15.25,73300.5,3.43,-19.03,-18.21,0,*78
1504983936.3,32538,15.19,73318.3,3.43,-18.35,-17.83,0,*74
1504983937.55,32539,15.19,73326.8,3.41,-16.51,-16.45,0,*70
1504983938.77,32540,15.19,73326.0,3.39,-17.69,-17.21,0,*78
1504983940.03,32541,15.19,73326.8,3.41,-18.11,-17.11,0,*75
1504983941.28,32542,15.19,73338.0,3.41,-18.45,-17.97,0,*79
1504983942.51,32543,15.19,73332.5,3.39,-19.37,-18.59,0,*7E
1504983943.73,32544,15.25,73324.5,3.39,-19.23,-18.25,0,*77
1504983944.91,32545,15.19,73318.5,3.39,-20.29,-19.07,0,*77
1504983946.13,32546,15.19,73318.0,3.39,-20.53,-19.07,0,*79
1504983947.33,32547,15.19,73312.8,3.39,-19.07,-17.69,0,*75
1504983948.56,32548,15.19,73328.3,3.39,-17.87,-16.17,0,*74
1504983949.79,32549,15.19,73328.8,3.39,-19.37,-17.41,0,*72
1504983951.04,32550,15.19,73334.3,3.37,-20.05,-17.55,0,*7A
1504983952.29,32551,15.19,73332.0,3.35,-19.23,-16.51,0,*72
1504983953.55,32552,15.19,73328.8,3.37,-19.51,-16.13,0,*70
1504983954.83,32553,15.19,73326.3,3.37,-19.65,-16.09,0,*7D
1504983956.07,32554,15.19,73336.0,3.37,-19.99,-15.53,0,*75
1504983957.34,32555,15.19,73334.3,3.37,-19.85,-14.47,0,*7D
1504983958.58,32556,15.25,73332.8,3.37,-19.13,-14.19,0,*7A
1504983959.8,32557,15.19,73314.5,3.35,-15.11,-11.67,0,*7B
1504983961.05,32558,15.19,73318.3,3.33,-12.11,-8.17,0,*4A
1504983962.28,32559,15.19,73338.0,3.31,-11.41,-6.81,0,*4E
1504983963.52,32560,15.19,73334.5,3.31,-7.65,-4.65,0,*7D
1504983964.73,32561,15.19,73322.5,3.31,-2.23,-2.19,0,*76
1504983965.97,32562,15.25,73316.5,3.33,0.59,0.33,0,*72
1504983967.19,32563,15.19,73316.8,3.31,0.91,1.01,0,*45
1504983968.44,32564,15.19,73306.5,3.33,0.95,1.43,0,*42
1504983969.7,32565,15.19,73298.8,3.33,1.17,1.67,0,*7E
1504983970.95,32566,15.19,73304.3,3.33,1.51,1.89,0,*7F
1504983972.21,32567,15.19,73302.8,3.33,1.55,1.97,0,*75
1504983973.44,32568,15.19,73302.3,3.33,1.41,2.05,0,*77
1504983974.7,32569,15.19,73296.5,3.33,1.29,2.05,0,*78
1504983975.97,32570,15.19,73306.8,3.33,1.29,2.05,0,*70
1504983977.22,32571,15.19,73304.0,3.33,0.95,1.89,0,*40
1504983978.41,32572,15.19,73310.8,3.35,0.75,1.79,0,*44
1504983979.63,32573,15.19,73304.5,3.35,0.59,1.43,0,*42
1504983980.83,32574,15.25,73306.8,3.37,-0.11,0.97,0,*5E
1504983982.05,32575,15.19,73312.0,3.37,-0.15,0.87,0,*5A
1504983983.28,32576,15.19,73318.3,3.37,-0.45,0.63,0,*56
1504983984.51,32577,15.19,73306.3,3.37,-1.29,0.21,0,*6A
1504983985.75,32578,15.19,73308.5,3.37,-4.49,-1.35,0,*7F
1504983986.97,32579,15.19,73296.0,3.37,-6.85,-2.15,0,*7D
1504983988.19,32580,15.19,73292.0,3.37,-8.75,-2.99,0,*7E
1504983989.44,32581,15.19,73304.5,3.37,-10.79,-4.37,0,*48
1504983990.69,32582,15.19,73302.8,3.37,-13.07,-6.19,0,*4F
1504983991.92,32583,15.19,73300.5,3.37,-15.21,-7.53,0,*43
1504983993.15,32584,15.19,73298.3,3.37,-15.25,-7.83,0,*4D
1504983994.36,32585,15.19,73300.5,3.39,-13.47,-6.93,0,*40
1504983995.59,32586,15.19,73306.3,3.35,-12.39,-7.65,0,*4F
1504983996.83,32587,15.19,73298.0,3.37,-12.03,-7.31,0,*44
1504983998.08,32588,15.19,73306.5,3.37,-15.01,-10.23,0,*7B
1504983999.34,32589,15.19,73298.8,3.37,-19.85,-13.79,0,*76
1504984000.6,32590,15.19,73292.5,3.39,-18.31,-13.29,0,*7B
1504984001.79,32591,15.19,73304.3,3.39,-18.11,-14.29,0,*7F
1504984003.02,32592,15.19,73314.3,3.39,-19.95,-16.65,0,*7B
1504984004.28,32593,15.25,73312.8,3.39,-21.53,-18.01,0,*77
1504984005.51,32594,15.19,73324.8,3.35,-21.57,-17.87,0,*79
1504984006.77,32595,15.19,73334.3,3.37,-21.87,-18.21,0,*74
1504984008.0,32596,15.25,73334.8,3.35,-21.87,-18.21,0,*75
1504984009.25,32597,15.19,73324.8,3.35,-22.17,-17.93,0,*78
1504984010.48,32598,15.19,73322.3,3.35,-21.93,-17.17,0,*74
1504984011.75,32599,15.19,73340.3,3.35,-21.53,-16.09,0,*77
1504984013.0,32600,15.19,73358.0,3.33,-21.97,-15.99,0,*70
1504984014.22,32601,15.19,73360.5,3.31,-22.63,-15.71,0,*7D
1504984015.47,32602,15.25,73358.3,3.29,-21.23,-13.83,0,*7B
1504984016.75,32603,15.19,73344.5,3.27,-19.57,-11.67,0,*74
1504984018.01,32604,15.19,73348.0,3.27,-18.35,-10.27,0,*73
1504984019.22,32605,15.19,73330.3,3.25,-16.23,-8.25,0,*42
1504984020.42,32606,15.19,73326.5,3.21,-14.23,-6.51,0,*4A
1504984021.67,32607,15.19,73342.3,3.21,-12.57,-4.81,0,*41
1504984022.88,32608,15.19,73338.5,3.21,-11.15,-3.51,0,*41
1504984024.07,32609,15.19,73348.3,3.21,-8.97,-2.31,0,*75
1504984025.29,32610,15.19,73348.3,3.21,-7.15,-1.39,0,*73
1504984026.52,32611,15.19,73340.8,3.19,-4.85,-0.53,0,*4E
1504984027.72,32612,15.19,73338.0,3.19,-3.19,-0.07,0,*7E
1504984028.95,32613,15.19,73340.3,3.19,-1.79,0.59,0,*6D
1504984030.13,32614,15.19,73338.0,3.17,-1.17,1.01,0,*50
1504984031.36,32615,15.19,73320.3,3.19,-0.69,1.09,0,*6F
1504984032.61,32616,15.19,73322.0,3.19,-0.27,1.29,0,*64
1504984033.82,32617,15.19,73316.8,3.17,0.21,1.29,0,*40
1504984035.03,32618,15.19,73312.8,3.19,0.25,0.97,0,*71
1504984036.24,32619,15.19,73310.5,3.19,0.09,0.71,0,*46
1504984037.44,32620,15.19,73306.8,3.17,-0.37,0.37,0,*50
1504984038.67,32621,15.19,73310.0,3.19,-1.05,-0.07,0,*71
1504984039.85,32622,15.19,73310.8,3.17,-1.79,-0.53,0,*46
1504984041.11,32623,15.19,73310.0,3.19,-2.67,-0.93,0,*49
1504984042.35,32624,15.19,73296.5,3.21,-3.51,-1.43,0,*7D
1504984043.56,32625,15.19,73278.5,3.19,-4.33,-1.75,0,*71
1504984044.82,32626,15.19,73280.3,3.19,-4.73,-1.87,0,*7B
1504984046.09,32627,15.19,73290.8,3.19,-5.23,-1.99,0,*71
1504984047.31,32628,15.19,73280.8,3.17,-5.35,-1.99,0,*77
1504984048.54,32629,15.19,73276.0,3.19,-5.11,-1.67,0,*7F
1504984049.75,32630,15.19,73294.5,3.21,-4.81,-1.51,0,*71
1504984050.94,32631,15.19,73296.8,3.21,-4.53,-1.29,0,*70
1504984052.15,32632,15.19,73292.3,3.21,-4.09,-1.01,0,*76
1504984053.38,32633,15.19,73286.3,3.19,-3.55,-0.69,0,*4D
1504984054.6,32634,15.19,73286.3,3.19,-2.99,-0.41,0,*41
1504984055.82,32635,15.19,73276.0,3.19,-2.51,-0.07,0,*76
1504984057.07,32636,15.19,73274.3,3.19,-1.87,0.25,0,*60
1504984058.25,32637,15.19,73272.3,3.21,-1.25,0.43,0,*62
1504984059.45,32638,15.19,73276.3,3.21,-0.61,0.71,0,*5D
1504984060.64,32639,15.19,73278.0,3.21,-0.15,0.95,0,*55
1504984061.85,32640,15.19,73282.5,3.21,0.37,1.17,0,*4D
1504984063.04,32641,15.19,73286.8,3.21,0.79,1.41,0,*45
1504984064.28,32642,15.19,73288.5,3.21,1.21,1.55,0,*7F
1504984065.48,32643,15.19,73286.0,3.21,1.55,1.79,0,*73
1504984066.66,32644,15.19,73280.8,3.25,1.75,1.83,0,*77
1504984067.89,32645,15.19,73280.3,3.21,2.01,2.01,0,*7B
1504984069.12,32646,15.19,73276.5,3.21,2.05,2.13,0,*7F
1504984070.34,32647,15.19,73276.5,3.21,2.25,2.13,0,*7C
1504984071.52,32648,15.19,73282.8,3.25,2.27,2.27,0,*72
1504984072.75,32649,15.19,73288.0,3.25,2.43,2.51,0,*70
1504984073.98,32650,15.19,73282.3,3.21,2.47,2.39,0,*76
1504984075.21,32651,15.19,73278.5,3.25,2.51,2.51,0,*7A
1504984076.44,32652,15.19,73284.8,3.25,2.47,2.51,0,*7E
1504984077.67,32653,15.19,73282.8,3.25,2.59,2.59,0,*78
1504984078.89,32654,15.19,73280.8,3.27,2.55,2.65,0,*7E
1504984080.11,32655,15.19,73282.0,3.25,2.55,2.55,0,*7E
1504984081.34,32656,15.19,73278.8,3.25,2.59,2.59,0,*7D
1504984082.56,32657,15.19,73276.5,3.25,2.59,2.59,0,*7C
1504984083.79,32658,15.19,73276.3,3.25,2.55,2.59,0,*7F
1504984085.01,32659,15.19,73268.3,3.25,2.59,2.55,0,*7E
1504984086.26,32660,15.19,73266.3,3.27,2.55,2.55,0,*7A
1504984087.5,32661,15.19,73264.0,3.27,2.55,2.55,0,*7B
1504984088.75,32662,15.19,73264.3,3.27,2.55,2.55,0,*78
1504984089.99,32663,15.19,73262.0,3.27,2.55,2.55,0,*79
1504984091.24,32664,15.19,73270.0,3.27,2.43,2.55,0,*79
1504984092.49,32665,15.19,73270.8,3.27,2.43,2.55,0,*78
1504984093.74,32666,15.19,73280.0,3.27,2.39,2.43,0,*71
1504984095.0,32667,15.19,73282.3,3.27,1.97,2.09,0,*79
1504984096.22,32668,15.19,73286.8,3.29,1.89,2.01,0,*7F
1504984097.45,32669,15.19,73282.3,3.29,2.01,2.01,0,*7D
1504984098.67,32670,15.19,73286.8,3.29,1.89,1.89,0,*75
1504984099.87,32671,15.19,73280.3,3.29,1.89,1.75,0,*77
1504984101.12,32672,15.19,73282.0,3.31,1.89,1.85,0,*72
1504984102.34,32673,15.19,73282.0,3.31,1.41,1.17,0,*7C
1504984103.55,32674,15.19,73280.8,3.31,0.63,0.97,0,*73
1504984104.76,32675,15.19,73292.3,3.31,-0.33,0.33,0,*54
1504984106.02,32676,15.19,73286.3,3.31,-2.55,-0.97,0,*46
1504984107.26,32677,15.19,73282.0,3.31,-6.19,-4.65,0,*72
1504984108.49,32678,15.19,73278.0,3.31,-8.33,-6.97,0,*74
1504984109.7,32679,15.19,73278.3,3.31,-8.21,-4.45,0,*7B
1504984110.95,32680,15.19,73278.5,3.33,-11.29,-6.01,0,*4D
1504984112.19,32681,15.19,73280.5,3.31,-11.29,-6.01,0,*4E
1504984113.44,32682,15.19,73284.8,3.31,-10.89,-6.19,0,*4F
1504984114.68,32683,15.19,73286.5,3.33,-10.01,-5.77,0,*47
1504984115.94,32684,15.19,73288.3,3.31,-9.61,-5.15,0,*78
1504984117.17,32685,15.19,73288.3,3.31,-9.49,-4.49,0,*7B
1504984118.42,32686,15.19,73290.0,3.33,-8.55,-3.43,0,*7B
1504984119.66,32687,15.19,73288.5,3.31,-6.73,-2.67,0,*75
1504984120.92,32688,15.19,73288.3,3.31,-5.69,-2.71,0,*75